This demonstration page uses our WeatherBlox Daily Observations layout. Learn more.

Left ArrowRight Arrow

Hourly Observations for August 2, 2021

Temp ( °F °C ) Dew Point ( °F °C ) Humidity (%) Winds ( mph kmh ) Pressure ( in mb ) Visibility ( mi km ) Precip ( " mm )
12:53 am 00:53 Clear 78 25.6 39 3.9 25 25 ENE 16 26 29.99 1016 10 16 N/A
1:53 am 01:53 Clear 74 23.3 40 4.4 29 29 ENE 17 28 30.07 1018 10 16 N/A
2:53 am 02:53 Clear 71 21.7 40 4.4 32 32 ENE 15 24 29.98 1015 10 16 N/A
3:53 am 03:53 Clear 70 21.1 40 4.4 34 34 NE 14 22 29.98 1015 10 16 N/A
4:53 am 04:53 Clear 70 21.1 41 5 35 35 ENE 13 20 29.98 1015 10 16 N/A
5:53 am 05:53 Clear 68 20 42 5.6 39 39 ENE 13 20 29.98 1015 10 16 N/A
6:53 am 06:53 Sunny 70 21.1 43 6.1 38 38 ENE 10 17 29.99 1016 10 16 N/A
7:53 am 07:53 Sunny 72 22.2 43 6.1 35 35 ENE 9 15 29.99 1016 10 16 N/A
8:53 am 08:53 Sunny 76 24.4 44 6.7 32 32 E 10 17 30.00 1016 10 16 N/A
9:53 am 09:53 Partly Cloudy 78 25.6 44 6.7 30 30 NNW 5 7 30.02 1017 10 16 N/A
10:53 am 10:53 Sunny 78 25.6 43 6.1 29 29 W 3 6 30.02 1017 10 16 N/A
11:53 am 11:53 Mostly Sunny 78 25.6 44 6.7 30 30 SSW 5 7 30.03 1017 10 16 N/A
12:53 pm 12:53 Sunny 82 27.8 41 5 23 23 NW 5 7 30.01 1016 10 16 N/A
1:53 pm 13:53 Sunny 88 31.1 45 7.2 22 22 N N/A 29.98 1015 10 16 N/A
2:53 pm 14:53 Sunny 93 33.9 44 6.7 18 18 ENE 3 6 29.95 1014 10 16 N/A
3:53 pm 15:53 Mostly Sunny 93 33.9 43 6.1 18 18 S 3 6 29.93 1014 9 14 N/A
4:53 pm 16:53 Cloudy 93 33.9 43 6.1 18 18 NNW 3 6 29.91 1013 9 14 N/A
5:53 pm 17:53 Mostly Cloudy 92 33.3 43 6.1 18 18 NW 3 6 29.91 1013 8 13 N/A
6:53 pm 18:53 Mostly Cloudy with Light Rain 83 28.3 53 11.7 36 36 NW 12 19 29.91 1013 6 10 0.00 0.00
7:35 pm 19:35 Mostly Cloudy 78 25.6 62 16.7 58 58 W 30 48 29.88 1012 7 11 0.00 0.00
7:53 pm 19:53 Partly Cloudy 76 24.4 64 17.8 67 67 W 20 31 30.00 1016 10 16 0.00 0.00
8:53 pm 20:53 Mostly Cloudy with Light Rain 71 21.7 66 18.9 84 84 WNW 15 24 30.05 1018 10 16 0.00 0.00
9:53 pm 21:53 Clear 69 20.6 67 19.4 93 93 WSW 10 17 30.05 1018 10 16 0.00 0.00
10:53 pm 22:53 Mostly Cloudy 69 20.6 67 19.4 93 93 WSW 3 6 30.04 1017 10 16 N/A
11:53 pm 23:53 Mostly Cloudy 69 20.6 67 19.4 93 93 SE 6 9 30.02 1017 10 16 N/A

Powered by AerisWeather